This demonstration page uses our WeatherBlox Daily Observations layout. Learn more.

Left ArrowRight Arrow

Hourly Observations for July 2, 2021

Temp ( °F °C ) Dew Point ( °F °C ) Humidity (%) Winds ( mph kmh ) Pressure ( in mb ) Visibility ( mi km ) Precip ( " mm )
12:59 am 00:59 Mostly Cloudy 81 27.2 70 21.1 69 69 SSW 21 33 29.85 1011 10 16 0.00 0.00
1:16 am 01:16 Mostly Cloudy with Thunderstorms 81 27.2 70 21.1 69 69 SW 13 20 29.86 1011 10 16 0.00 0.00
1:59 am 01:59 Cloudy with Thunderstorms 77 25 69 20.6 77 77 SSW 22 35 29.87 1012 10 16 0.00 0.00
2:55 am 02:55 Cloudy 75 24 70 21 83 83 SW 7 11 29.85 1011 10 16 0.00 0.00
2:59 am 02:59 Cloudy 75 23.9 70 21.1 84 84 VRB 7 11 29.85 1011 10 16 0.00 0.00
3:59 am 03:59 Mostly Cloudy 75 23.9 69 20.6 82 82 SW 5 7 29.83 1010 10 16 0.00 0.00
4:59 am 04:59 Cloudy 78 25.6 70 21.1 76 76 SW 10 17 29.82 1010 10 16 0.00 0.00
5:59 am 05:59 Mostly Cloudy with Light Rain 78 25.6 69 20.6 74 74 SW 12 19 29.82 1010 10 16 0.00 0.00
6:38 am 06:38 Cloudy with Light Rain 77 25 70 21.1 79 79 SSW 9 15 29.81 1009 3 4 0.02 0.51
6:42 am 06:42 Cloudy with Light Rain 76 24.4 71 21.7 85 85 SSW 8 13 29.81 1009 2 3 0.04 1.02
6:54 am 06:54 Cloudy with Light Rain 75 24 72 22 89 89 WSW 8 13 29.81 1009 3 5 0.07 1.78
6:59 am 06:59 Cloudy with Light Rain 76 24.4 71 21.7 85 85 W 7 11 29.81 1009 9 14 0.07 1.78
7:59 am 07:59 Cloudy 77 25 72 22.2 85 85 SSW 8 13 29.79 1009 10 16 0.00 0.00
8:40 am 08:40 Cloudy with Thunderstorms 76 24.4 71 21.7 85 85 W 10 17 29.81 1009 6 10 0.01 0.25
8:47 am 08:47 Windy with Storms Likely 72 22.2 68 20 87 87 W 20 31 29.83 1010 1 2 0.09 2.29
8:49 am 08:49 Cloudy with Strong Thunderstorms 71 21.7 66 18.9 84 84 W 21 33 29.83 1010 1 1 0.15 3.81
8:53 am 08:53 Cloudy with Strong Thunderstorms 70 21 66 19 88 88 WNW 23 37 29.82 1010 0 0 0.32 8.13
8:55 am 08:55 Cloudy with Strong Thunderstorms 70 21 66 19 88 88 W 20 31 29.83 1010 0 0 0.38 9.65
8:59 am 08:59 Cloudy with Strong Thunderstorms 70 21.1 66 18.9 87 87 W 12 19 29.83 1010 0 0 0.44 11.18
9:05 am 09:05 Cloudy with Strong Thunderstorms 70 21.1 67 19.4 90 90 WNW 13 20 29.84 1010 1 1 0.07 1.78
9:25 am 09:25 Cloudy with Thunderstorms 70 21.1 67 19.4 90 90 S 6 9 29.82 1010 2 3 0.18 4.57
9:44 am 09:44 Cloudy with Thunderstorms 69 20.6 66 18.9 90 90 S 8 13 29.81 1009 2 2 0.26 6.60
9:49 am 09:49 Cloudy with Rain 69 20.6 66 18.9 90 90 S 10 17 29.83 1010 2 3 0.27 6.86
9:59 am 09:59 Cloudy with Light Rain 69 20.6 66 18.9 90 90 SE 8 13 29.80 1009 3 4 0.30 7.62
10:59 am 10:59 Cloudy with Light Rain 69 20.6 66 18.9 90 90 S 6 9 29.84 1011 6 10 0.07 1.78
11:59 am 11:59 Cloudy with Light Rain 69 20.6 66 18.9 90 90 SW 9 15 29.84 1011 10 16 0.02 0.51
12:11 pm 12:11 Cloudy with Light Rain 70 21.1 66 18.9 87 87 SSW 9 15 29.84 1010 10 16 0.00 0.00
12:29 pm 12:29 Cloudy 71 21.7 67 19.4 87 87 S 9 15 29.82 1010 10 16 0.00 0.00
12:59 pm 12:59 Cloudy 72 22.2 67 19.4 84 84 SW 12 19 29.82 1010 10 16 0.00 0.00
1:59 pm 13:59 Cloudy 74 23.3 67 19.4 79 79 SW 13 20 29.80 1009 10 16 0.00 0.00
2:24 pm 14:24 Cloudy 75 23.9 66 18.9 74 74 WSW 9 15 29.81 1009 10 16 0.00 0.00
2:59 pm 14:59 Cloudy 76 24.4 67 19.4 74 74 WSW 10 17 29.80 1009 10 16 0.00 0.00
3:59 pm 15:59 Cloudy 75 23.9 67 19.4 76 76 WNW 12 19 29.78 1009 10 16 0.00 0.00
4:59 pm 16:59 Cloudy 75 23.9 67 19.4 76 76 W 8 13 29.79 1009 10 16 0.00 0.00
5:59 pm 17:59 Cloudy 76 24.4 67 19.4 74 74 W 7 11 29.78 1009 10 16 0.00 0.00
6:30 pm 18:30 Cloudy 76 24.4 67 19.4 74 74 VRB 5 7 29.78 1008 10 16 0.00 0.00
6:59 pm 18:59 Cloudy 76 24.4 67 19.4 74 74 WNW 6 9 29.78 1008 10 16 0.00 0.00
7:59 pm 19:59 Mostly Cloudy 75 23.9 66 18.9 74 74 NNW 5 7 29.79 1009 10 16 0.00 0.00
8:59 pm 20:59 Mostly Cloudy 72 22.2 66 18.9 82 82 VRB 5 7 29.80 1009 10 16 0.00 0.00
9:59 pm 21:59 Partly Cloudy 71 21.7 67 19.4 87 87 VRB 5 7 29.81 1010 10 16 0.00 0.00
10:59 pm 22:59 Mostly Cloudy 73 22.8 67 19.4 81 81 VRB 5 7 29.81 1010 9 14 0.00 0.00
11:59 pm 23:59 Mostly Cloudy 73 22.8 68 20 84 84 W 7 11 29.81 1010 10 16 0.00 0.00

Powered by AerisWeather